| time (UTC) | temp F | wind direction | speed knots | gust knots | rain 1hr in | rain 24hr in | rain mn in | humidity % | barometer mb |
| 20260902112516 | 52 | 225 | 7.0 | 13.0 | 0.00 | 0.00 | 0.00 | 55 | 1027.9 |
| 20260902111537 | 51 | 225 | 5.2 | 10.4 | 0.00 | 0.00 | 0.00 | 56 | 1028.0 |
| 20260902110516 | 51 | 225 | 4.3 | 8.7 | 0.00 | 0.00 | 0.00 | 55 | 1027.5 |
| 20260902105516 | 52 | 248 | 5.2 | 10.4 | 0.00 | 0.00 | 0.00 | 53 | 1028.0 |
| 20260902104517 | 52 | 248 | 5.2 | 8.7 | 0.00 | 0.00 | 0.00 | 51 | 1028.1 |
| 20260902103536 | 53 | 225 | 5.2 | 8.7 | 0.00 | 0.00 | 0.00 | 51 | 1028.0 |
| 20260902102516 | 53 | 248 | 3.5 | 7.0 | 0.00 | 0.00 | 0.00 | 53 | 1028.1 |
| 20260902101516 | 53 | 225 | 2.6 | 4.3 | 0.00 | 0.00 | 0.00 | 54 | 1028.3 |
| 20260902100517 | 54 | 225 | 1.7 | 3.5 | 0.00 | 0.00 | 0.00 | 54 | 1028.4 |
| 20260902095517 | 54 | 203 | 1.7 | 2.6 | 0.00 | 0.00 | 0.00 | 54 | 1028.5 |
| 20260902094516 | 55 | 203 | 1.7 | 1.7 | 0.00 | 0.00 | 0.00 | 53 | 1028.7 |
| 20260902093516 | 55 | 180 | 1.7 | 5.2 | 0.00 | 0.00 | 0.00 | 53 | 1028.2 |
| 20260902092517 | 55 | 180 | 2.6 | 6.1 | 0.00 | 0.00 | 0.00 | 54 | 1028.2 |
| 20260902091517 | 54 | 180 | 1.7 | 3.5 | 0.00 | 0.00 | 0.00 | 55 | 1028.3 |
| 20260902090516 | 54 | 203 | 2.6 | 4.3 | 0.00 | 0.00 | 0.00 | 56 | 1027.2 |
| 20260902085517 | 53 | 180 | 3.5 | 6.1 | 0.00 | 0.00 | 0.00 | 57 | 1027.2 |
| 20260902084517 | 53 | 203 | 0.9 | 1.7 | 0.00 | 0.00 | 0.00 | 57 | 1027.3 |
| 20260902083516 | 54 | 203 | 1.7 | 2.6 | 0.00 | 0.00 | 0.00 | 56 | 1028.6 |
| 20260902082537 | 55 | 180 | 0.9 | 2.6 | 0.00 | 0.00 | 0.00 | 55 | 1028.7 |
| 20260902081537 | 55 | 203 | 0.9 | 2.6 | 0.00 | 0.00 | 0.00 | 54 | 1028.8 |
| 20260902080516 | 56 | 180 | 1.7 | 3.5 | 0.00 | 0.00 | 0.00 | 53 | 1029.6 |
| 20260902075537 | 56 | 180 | 1.7 | 3.5 | 0.00 | 0.00 | 0.00 | 53 | 1029.7 |
| 20260902074516 | 56 | 180 | 0.9 | 3.5 | 0.00 | 0.00 | 0.00 | 53 | 1029.7 |
| 20260902073517 | 56 | 203 | 0.9 | 1.7 | 0.00 | 0.00 | 0.00 | 53 | 1029.7 |
| 20260902072537 | 56 | 180 | 0.9 | 1.7 | 0.00 | 0.00 | 0.00 | 52 | 1029.6 |
| 20260902071516 | 56 | 203 | 0.9 | 1.7 | 0.00 | 0.00 | 0.00 | 52 | 1029.8 |
| 20260902070516 | 57 | 203 | 0.9 | 2.6 | 0.00 | 0.00 | 0.00 | 51 | 1029.2 |
| 20260902065516 | 57 | 180 | 1.7 | 2.6 | 0.00 | 0.00 | 0.00 | 51 | 1029.1 |
| 20260902064516 | 57 | 180 | 1.7 | 1.7 | 0.00 | 0.00 | 0.00 | 51 | 1029.3 |
| 20260902063517 | 57 | 0.0 | 1.7 | 0.00 | 0.00 | 0.00 | 51 | 1029.8 | |
| 20260902062516 | 56 | 0.0 | 0.9 | 0.00 | 0.00 | 0.00 | 51 | 1029.0 | |
| 20260902061516 | 57 | 180 | 0.9 | 2.6 | 0.00 | 0.00 | 0.00 | 50 | 1029.7 |
| 20260902060516 | 57 | 158 | 0.9 | 1.7 | 0.00 | 0.00 | 0.00 | 51 | 1029.2 |
| 20260902055517 | 57 | 0.0 | 0.9 | 0.00 | 0.00 | 0.00 | 51 | 1029.3 | |
| 20260902054517 | 57 | 0.0 | 1.7 | 0.00 | 0.00 | 0.00 | 51 | 1029.2 | |
| 20260902053517 | 57 | 180 | 0.9 | 1.7 | 0.00 | 0.00 | 0.00 | 51 | 1028.6 |
| 20260902052517 | 56 | 0.0 | 0.0 | 0.00 | 0.00 | 0.00 | 52 | 1028.7 | |
| 20260902051516 | 56 | 0.0 | 0.0 | 0.00 | 0.00 | 0.00 | 52 | 1028.6 | |
| 20260902050516 | 56 | 135 | 0.9 | 1.7 | 0.00 | 0.00 | 0.00 | 53 | 1028.2 |
| 20260902045516 | 55 | 0.0 | 0.9 | 0.00 | 0.00 | 0.00 | 54 | 1028.3 | |
| 20260902044517 | 55 | 68 | 0.9 | 1.7 | 0.00 | 0.00 | 0.00 | 54 | 1028.2 |
| 20260902043516 | 55 | 68 | 1.7 | 2.6 | 0.00 | 0.00 | 0.00 | 54 | 1027.8 |
| 20260902042516 | 56 | 68 | 1.7 | 2.6 | 0.00 | 0.00 | 0.00 | 54 | 1028.0 |
| 20260902041516 | 56 | 68 | 1.7 | 1.7 | 0.00 | 0.00 | 0.00 | 54 | 1028.0 |
| 20260902040536 | 56 | 90 | 1.7 | 3.5 | 0.00 | 0.00 | 0.00 | 53 | 1027.5 |
| 20260902035516 | 57 | 45 | 1.7 | 3.5 | 0.00 | 0.00 | 0.00 | 52 | 1028.0 |
| 20260902034516 | 57 | 68 | 1.7 | 2.6 | 0.00 | 0.00 | 0.00 | 52 | 1027.9 |
| 20260902033536 | 57 | 90 | 0.9 | 1.7 | 0.00 | 0.00 | 0.00 | 54 | 1026.9 |
| 20260902032516 | 58 | 90 | 0.9 | 2.6 | 0.00 | 0.00 | 0.00 | 55 | 1027.0 |
| 20260902031516 | 58 | 68 | 0.9 | 1.7 | 0.00 | 0.00 | 0.00 | 55 | 1027.6 |
| 20260902030516 | 59 | 90 | 0.9 | 1.7 | 0.00 | 0.00 | 0.00 | 57 | 1027.7 |
| 20260902025516 | 59 | 0.0 | 2.6 | 0.00 | 0.01 | 0.00 | 50 | 1027.6 | |
| 20260902024516 | 59 | 293 | 0.9 | 1.7 | 0.00 | 0.01 | 0.00 | 51 | 1027.5 |
| 20260902023536 | 60 | 270 | 0.9 | 4.3 | 0.00 | 0.02 | 0.00 | 49 | 1027.4 |
| 20260902022516 | 60 | 0.0 | 1.7 | 0.00 | 0.04 | 0.00 | 48 | 1027.2 | |
| 20260902021556 | 60 | 0.0 | 0.0 | 0.00 | 0.06 | 0.00 | 47 | 1027.1 | |
| 20260902020516 | 60 | 0.0 | 0.0 | 0.00 | 0.08 | 0.00 | 47 | 1027.7 | |
| 20260902015516 | 61 | 0.0 | 0.0 | 0.00 | 0.11 | 0.00 | 47 | 1027.8 | |
| 20260902014516 | 61 | 0.0 | 1.7 | 0.00 | 0.11 | 0.00 | 47 | 1027.7 | |
| 20260902013516 | 62 | 0.0 | 1.7 | 0.00 | 0.11 | 0.00 | 47 | 1027.8 | |
| 20260902012516 | 63 | 0.0 | 2.6 | 0.00 | 0.11 | 0.00 | 45 | 1027.9 | |
| 20260902011516 | 65 | 113 | 0.9 | 2.6 | 0.00 | 0.11 | 0.00 | 44 | 1028.7 |
| 20260902010536 | 66 | 113 | 0.9 | 2.6 | 0.00 | 0.11 | 0.00 | 42 | 1029.5 |
| 20260902005536 | 66 | 90 | 1.7 | 6.1 | 0.00 | 0.11 | 0.00 | 42 | 1029.5 |
| 20260902004516 | 66 | 0.0 | 2.6 | 0.00 | 0.11 | 0.00 | 44 | 1029.4 | |
| 20260902003516 | 64 | 113 | 0.9 | 3.5 | 0.00 | 0.11 | 0.00 | 46 | 1029.5 |
| 20260902002516 | 64 | 0.0 | 2.6 | 0.00 | 0.11 | 0.00 | 45 | 1029.5 | |
| 20260902001536 | 65 | 90 | 1.7 | 5.2 | 0.00 | 0.11 | 0.00 | 44 | 1029.4 |
| 20260902000555 | 65 | 0.0 | 1.7 | 0.00 | 0.11 | 0.00 | 43 | 1029.4 | |
| 20260901235516 | 66 | 90 | 0.9 | 4.3 | 0.00 | 0.14 | 0.00 | 41 | 1029.3 |
| 20260901234515 | 67 | 90 | 1.7 | 5.2 | 0.00 | 0.16 | 0.00 | 39 | 1029.7 |
| 20260901233516 | 69 | 90 | 1.7 | 5.2 | 0.00 | 0.16 | 0.00 | 36 | 1030.2 |
| 20260901232515 | 70 | 113 | 2.6 | 7.0 | 0.00 | 0.16 | 0.00 | 36 | 1030.2 |
| 20260901231536 | 69 | 180 | 1.7 | 3.5 | 0.00 | 0.16 | 0.00 | 37 | 1030.3 |
| 20260901230535 | 68 | 203 | 4.3 | 9.6 | 0.00 | 0.16 | 0.00 | 37 | 1029.6 |
| 20260901225516 | 69 | 293 | 7.0 | 12.2 | 0.00 | 0.16 | 0.00 | 34 | 1029.2 |
| 20260901224516 | 68 | 225 | 7.0 | 15.6 | 0.00 | 0.16 | 0.00 | 35 | 1029.4 |
| 20260901223515 | 68 | 270 | 4.3 | 9.6 | 0.00 | 0.16 | 0.00 | 33 | 1029.4 |
| 20260901222515 | 68 | 293 | 1.7 | 5.2 | 0.00 | 0.16 | 0.00 | 35 | 1029.5 |
| 20260901221535 | 67 | 248 | 6.1 | 13.0 | 0.00 | 0.16 | 0.00 | 34 | 1028.8 |
| 20260901220515 | 67 | 293 | 5.2 | 13.0 | 0.00 | 0.16 | 0.00 | 38 | 1029.2 |
| 20260901215515 | 67 | 248 | 5.2 | 12.2 | 0.00 | 0.16 | 0.00 | 36 | 1029.2 |
| 20260901214516 | 66 | 248 | 7.0 | 13.9 | 0.00 | 0.16 | 0.00 | 36 | 1029.2 |
| 20260901213515 | 66 | 225 | 7.0 | 12.2 | 0.00 | 0.16 | 0.00 | 37 | 1028.7 |
| 20260901212515 | 64 | 248 | 4.3 | 10.4 | 0.00 | 0.16 | 0.00 | 41 | 1028.3 |
| 20260901211517 | 64 | 225 | 6.1 | 13.0 | 0.00 | 0.16 | 0.00 | 38 | 1028.1 |
| 20260901210517 | 61 | 248 | 5.2 | 9.6 | 0.00 | 0.16 | 0.00 | 41 | 1027.0 |
| 20260901205517 | 60 | 225 | 7.0 | 18.2 | 0.00 | 0.16 | 0.00 | 43 | 1027.4 |
| 20260901204517 | 61 | 225 | 8.7 | 15.6 | 0.00 | 0.16 | 0.00 | 44 | 1027.4 |
| 20260901203517 | 64 | 203 | 4.3 | 9.6 | 0.00 | 0.16 | 0.00 | 43 | 1028.5 |
| 20260901202517 | 65 | 270 | 4.3 | 12.2 | 0.00 | 0.16 | 0.00 | 40 | 1029.1 |
| 20260901201517 | 64 | 225 | 4.3 | 9.6 | 0.00 | 0.16 | 0.00 | 44 | 1028.6 |
| 20260901200537 | 64 | 270 | 3.5 | 7.8 | 0.00 | 0.16 | 0.00 | 44 | 1029.3 |
| 20260901195517 | 64 | 270 | 3.5 | 8.7 | 0.00 | 0.16 | 0.00 | 43 | 1029.2 |
| 20260901194517 | 65 | 225 | 2.6 | 7.0 | 0.00 | 0.16 | 0.00 | 42 | 1029.1 |
| 20260901193517 | 63 | 225 | 4.3 | 9.6 | 0.00 | 0.16 | 0.00 | 43 | 1028.7 |
| 20260901192517 | 63 | 225 | 4.3 | 9.6 | 0.00 | 0.16 | 0.00 | 38 | 1028.4 |
| 20260901191517 | 64 | 203 | 2.6 | 10.4 | 0.00 | 0.16 | 0.00 | 40 | 1029.0 |
| 20260901190537 | 63 | 225 | 3.5 | 8.7 | 0.00 | 0.16 | 0.00 | 42 | 1028.5 |
| 20260901185517 | 63 | 203 | 2.6 | 7.8 | 0.00 | 0.16 | 0.00 | 45 | 1028.9 |
| 20260901184517 | 62 | 248 | 3.5 | 7.0 | 0.00 | 0.16 | 0.00 | 46 | 1028.4 |
| 20260901183517 | 62 | 248 | 2.6 | 7.0 | 0.00 | 0.16 | 0.00 | 45 | 1029.0 |
| 20260901182517 | 62 | 248 | 2.6 | 7.8 | 0.00 | 0.16 | 0.00 | 46 | 1029.2 |
| 20260901181517 | 63 | 293 | 5.2 | 10.4 | 0.00 | 0.16 | 0.00 | 41 | 1029.0 |
| 20260901180516 | 62 | 293 | 4.3 | 14.8 | 0.00 | 0.16 | 0.00 | 41 | 1029.1 |
| 20260901175516 | 63 | 225 | 7.0 | 13.9 | 0.00 | 0.16 | 0.00 | 41 | 1029.3 |
| 20260901174517 | 62 | 270 | 2.6 | 6.1 | 0.00 | 0.16 | 0.00 | 43 | 1029.3 |
| 20260901173516 | 61 | 203 | 5.2 | 13.0 | 0.00 | 0.16 | 0.00 | 42 | 1028.5 |
| 20260901172517 | 60 | 270 | 2.6 | 6.1 | 0.00 | 0.16 | 0.00 | 47 | 1028.0 |
| 20260901171517 | 61 | 225 | 5.2 | 11.3 | 0.00 | 0.16 | 0.00 | 45 | 1028.7 |
| 20260901170517 | 60 | 203 | 7.8 | 15.6 | 0.00 | 0.16 | 0.00 | 45 | 1027.8 |
| 20260901165516 | 60 | 225 | 7.8 | 13.0 | 0.00 | 0.16 | 0.00 | 45 | 1027.7 |
| 20260901164517 | 60 | 225 | 7.0 | 14.8 | 0.00 | 0.16 | 0.00 | 46 | 1027.7 |
| 20260901163517 | 59 | 225 | 6.1 | 11.3 | 0.00 | 0.16 | 0.00 | 49 | 1027.6 |
| 20260901162516 | 59 | 203 | 5.2 | 10.4 | 0.00 | 0.16 | 0.00 | 50 | 1026.7 |
| 20260901161516 | 58 | 203 | 3.5 | 7.0 | 0.00 | 0.16 | 0.00 | 56 | 1027.0 |
| 20260901160517 | 57 | 203 | 6.1 | 11.3 | 0.00 | 0.16 | 0.00 | 57 | 1026.4 |
| 20260901155516 | 56 | 203 | 7.8 | 12.2 | 0.00 | 0.16 | 0.00 | 61 | 1026.2 |
| 20260901154516 | 55 | 203 | 3.5 | 7.8 | 0.00 | 0.16 | 0.00 | 66 | 1026.4 |
| 20260901153517 | 53 | 225 | 1.7 | 4.3 | 0.00 | 0.16 | 0.00 | 72 | 1026.2 |
| 20260901152516 | 52 | 248 | 2.6 | 6.1 | 0.00 | 0.16 | 0.00 | 72 | 1025.5 |
| 20260901151516 | 52 | 225 | 3.5 | 7.8 | 0.00 | 0.16 | 0.00 | 70 | 1025.4 |
| 20260901150516 | 52 | 225 | 5.2 | 8.7 | 0.00 | 0.16 | 0.00 | 71 | 1025.2 |
| 20260901145516 | 52 | 225 | 3.5 | 9.6 | 0.00 | 0.16 | 0.00 | 73 | 1025.3 |
| 20260901144516 | 51 | 248 | 2.6 | 4.3 | 0.00 | 0.16 | 0.00 | 75 | 1025.4 |
| 20260901143516 | 51 | 225 | 2.6 | 5.2 | 0.00 | 0.16 | 0.00 | 74 | 1025.5 |
| 20260901142556 | 51 | 270 | 2.6 | 6.1 | 0.00 | 0.16 | 0.00 | 74 | 1025.4 |
| 20260901141516 | 51 | 248 | 3.5 | 7.8 | 0.00 | 0.16 | 0.00 | 74 | 1025.5 |
| 20260901140516 | 51 | 270 | 4.3 | 7.8 | 0.00 | 0.16 | 0.00 | 74 | 1026.1 |
| 20260901135516 | 51 | 248 | 3.5 | 7.8 | 0.00 | 0.16 | 0.00 | 74 | 1026.0 |
| 20260901134516 | 52 | 248 | 4.3 | 8.7 | 0.00 | 0.16 | 0.00 | 73 | 1026.4 |
| 20260901133516 | 51 | 248 | 3.5 | 9.6 | 0.00 | 0.16 | 0.00 | 73 | 1025.6 |
| 20260901132516 | 51 | 225 | 3.5 | 7.0 | 0.00 | 0.16 | 0.00 | 74 | 1025.3 |
| 20260901131516 | 51 | 248 | 3.5 | 7.8 | 0.00 | 0.16 | 0.00 | 75 | 1025.2 |
| 20260901130516 | 50 | 248 | 2.6 | 7.0 | 0.00 | 0.16 | 0.00 | 75 | 1025.0 |
| 20260901125516 | 50 | 248 | 2.6 | 7.0 | 0.00 | 0.16 | 0.00 | 75 | 1024.8 |
| 20260901124516 | 50 | 248 | 2.6 | 3.5 | 0.00 | 0.16 | 0.00 | 74 | 1024.7 |
| 20260901123516 | 51 | 203 | 4.3 | 6.1 | 0.00 | 0.16 | 0.00 | 72 | 1024.3 |
| 20260901122536 | 52 | 225 | 2.6 | 4.3 | 0.00 | 0.16 | 0.00 | 73 | 1024.9 |
| 20260901121536 | 52 | 248 | 1.7 | 4.3 | 0.00 | 0.16 | 0.00 | 70 | 1024.7 |
| 20260901120515 | 51 | 158 | 0.9 | 2.6 | 0.00 | 0.16 | 0.00 | 75 | 1026.0 |
| 20260901115515 | 51 | 203 | 0.9 | 1.7 | 0.00 | 0.16 | 0.00 | 76 | 1025.8 |
| 20260901114515 | 51 | 180 | 1.7 | 2.6 | 0.00 | 0.16 | 0.00 | 76 | 1025.8 |
| 20260901113515 | 51 | 203 | 0.9 | 2.6 | 0.00 | 0.16 | 0.00 | 76 | 1027.7 |